User: anonymous   Login
Location: C.E.K. Mees Observatory
(42.7003°N, 77.4088°W)
Time: 12:52:20
(UTC-04:00)
Language:

OTV 5 (USA 277) - Orbit

View from above orbital plane
View from above orbital plane
View from above satellite
View from above satellite

Ground track
Ground track

The orbit data is extracted from the following two-line orbital elements,

1 42932U 17052A   17250.42083334  .00000000  00000-0  00000-0 0    00
2 42932  43.0000  83.2000 0010000   0.0000 192.0000 15.52000000    08
Epoch (UTC): 07 September 2017 10:06:00
Eccentricity: 0.0010000
inclination: 43.0000°
perigee height: 404 km
apogee height: 417 km
right ascension of ascending node: 83.2000°
argument of perigee: 0.0000°
revolutions per day: 15.52000000
mean anomaly at epoch: 192.0000°
orbit number at epoch: 0

The dashed part of the orbit path shows where the satellite is in the earth's shadow,  

DLR